When you browse on this site, cookies collect data to enhance your experience and personalize the content and advertising you see.
Visit our Privacy Policy to learn more. By continuing to use the site, you agree to this use of cookies and data.
  • In Italy
  • List of Countries
  • For 7 days
  • Water Temperature
  • Satellite Maps
  • Weather Map
  • Weather Widgets
  • user-avatar
    Login

    Hourly Weather Reading

    Today, 17 January, Thursday

    Time Temperature Precipitation Wind Pressure Humidity
    00:00 +3°C° 0 mm 3 mps 748 mmHg 89%
    01:00 +3°C° 0.4 mm 4 mps 748 mmHg 90%
    02:00 +2°C° 0.4 mm 5 mps 748 mmHg 90%
    03:00 +2°C° 0.4 mm 5 mps 748 mmHg 91%
    04:00 +2°C° 0 mm 5 mps 749 mmHg 90%
    05:00 +1°C° 0 mm 5 mps 749 mmHg 90%
    06:00 +1°C° 0 mm 5 mps 750 mmHg 89%
    07:00 +1°C° 0 mm 5 mps 751 mmHg 88%
    08:00 +1°C° 0 mm 5 mps 752 mmHg 86%
    09:00 +1°C° 0 mm 5 mps 753 mmHg 85%
    10:00 +1°C° 0 mm 6 mps 754 mmHg 77%
    11:00 +1°C° 0 mm 6 mps 755 mmHg 69%
    12:00 +2°C° 0 mm 6 mps 756 mmHg 61%
    13:00 +2°C° 0 mm 6 mps 756 mmHg 62%
    14:00 +2°C° 0 mm 5 mps 757 mmHg 62%
    15:00 +3°C° 0 mm 4 mps 757 mmHg 63%
    16:00 +1°C° 0 mm 4 mps 758 mmHg 67%
    17:00 +1°C° 0 mm 3 mps 758 mmHg 71%
    18:00 0°C° 0 mm 3 mps 759 mmHg 75%
    19:00 +1°C° 0 mm 2 mps 759 mmHg 75%
    20:00 +1°C° 0 mm 2 mps 759 mmHg 75%
    21:00 +1°C° 0 mm 2 mps 760 mmHg 75%
    22:00 +1°C° 0 mm 2 mps 760 mmHg 74%
    23:00 +2°C° 0 mm 1 mps 760 mmHg 74%

    Tomorrow, 18 January, Friday

    Time Temperature Precipitation Wind Pressure Humidity
    00:00 +2°C° 0 mm 1 mps 760 mmHg 74%
    01:00 +2°C° 0 mm 1 mps 760 mmHg 73%
    02:00 +2°C° 0 mm 1 mps 760 mmHg 73%
    03:00 +2°C° 0 mm 1 mps 760 mmHg 72%
    04:00 +2°C° 0 mm 1 mps 760 mmHg 72%
    05:00 +2°C° 0 mm 1 mps 759 mmHg 72%
    06:00 +1°C° 0 mm 2 mps 759 mmHg 73%
    07:00 +1°C° 0 mm 2 mps 759 mmHg 74%
    08:00 +1°C° 0 mm 2 mps 759 mmHg 75%
    09:00 0°C° 0 mm 3 mps 759 mmHg 77%
    10:00 +1°C° 0 mm 3 mps 759 mmHg 72%
    11:00 +3°C° 0 mm 4 mps 758 mmHg 68%
    12:00 +5°C° 0 mm 5 mps 758 mmHg 63%
    13:00 +3°C° 0 mm 5 mps 758 mmHg 65%
    14:00 +3°C° 0 mm 5 mps 757 mmHg 67%
    15:00 +4°C° 0 mm 4 mps 756 mmHg 69%
    16:00 +2°C° 0.1 mm 5 mps 756 mmHg 70%
    17:00 +2°C° 0.1 mm 5 mps 756 mmHg 70%
    18:00 +2°C° 0.1 mm 5 mps 755 mmHg 71%
    19:00 +2°C° 0 mm 5 mps 755 mmHg 72%
    20:00 +2°C° 0 mm 5 mps 755 mmHg 73%
    21:00 +2°C° 0 mm 6 mps 755 mmHg 74%
    22:00 +2°C° 0.1 mm 6 mps 754 mmHg 77%
    23:00 +2°C° 0.1 mm 6 mps 754 mmHg 80%

    Day after tomorrow, 19 January, Saturday

    Time Temperature Precipitation Wind Pressure Humidity
    00:00 +2°C° 0.1 mm 6 mps 754 mmHg 83%
    01:00 +2°C° 0.2 mm 6 mps 753 mmHg 85%
    02:00 +2°C° 0.2 mm 6 mps 753 mmHg 87%
    03:00 +2°C° 0.2 mm 6 mps 753 mmHg 89%
    04:00 +3°C° 0.2 mm 6 mps 752 mmHg 90%
    05:00 +3°C° 0.2 mm 5 mps 752 mmHg 92%
    06:00 +3°C° 0.2 mm 5 mps 752 mmHg 93%
    07:00 +3°C° 0 mm 5 mps 752 mmHg 93%
    08:00 +3°C° 0 mm 5 mps 752 mmHg 93%
    09:00 +3°C° 0 mm 5 mps 752 mmHg 93%
    10:00 +5°C° 0.1 mm 5 mps 752 mmHg 92%
    11:00 +5°C° 0.1 mm 5 mps 752 mmHg 91%
    12:00 +6°C° 0.1 mm 5 mps 752 mmHg 89%
    13:00 +6°C° 0.1 mm 5 mps 751 mmHg 89%
    14:00 +6°C° 0.1 mm 4 mps 751 mmHg 89%
    15:00 +6°C° 0.1 mm 4 mps 751 mmHg 90%
    16:00 +5°C° 0 mm 4 mps 751 mmHg 91%
    17:00 +5°C° 0 mm 4 mps 751 mmHg 93%
    18:00 +4°C° 0 mm 4 mps 752 mmHg 94%
    19:00 +4°C° 0.1 mm 3 mps 752 mmHg 95%
    20:00 +4°C° 0.1 mm 3 mps 752 mmHg 95%
    21:00 +4°C° 0.1 mm 3 mps 752 mmHg 96%
    22:00 +5°C° 0.1 mm 2 mps 753 mmHg 96%
    23:00 +5°C° 0.1 mm 2 mps 753 mmHg 96%

    20 January, Sunday

    Time Temperature Precipitation Wind Pressure Humidity
    00:00 +5°C° 0.1 mm 2 mps 753 mmHg 96%
    01:00 +6°C° 0 mm 1 mps 754 mmHg 96%
    02:00 +6°C° 0 mm 1 mps 754 mmHg 96%
    03:00 +6°C° 0 mm 1 mps 754 mmHg 96%
    04:00 +6°C° 0 mm 1 mps 755 mmHg 96%
    05:00 +6°C° 0 mm 1 mps 755 mmHg 95%
    06:00 +6°C° 0 mm 1 mps 756 mmHg 95%
    07:00 +6°C° 0 mm 1 mps 756 mmHg 95%
    08:00 +4°C° 0 mm 2 mps 757 mmHg 94%
    09:00 +4°C° 0 mm 2 mps 758 mmHg 94%
    10:00 +5°C° 0 mm 2 mps 758 mmHg 91%
    11:00 +5°C° 0 mm 3 mps 759 mmHg 89%
    12:00 +5°C° 0 mm 3 mps 759 mmHg 87%
    13:00 +5°C° 0 mm 3 mps 760 mmHg 85%
    14:00 +5°C° 0 mm 3 mps 760 mmHg 84%
    15:00 +5°C° 0 mm 4 mps 760 mmHg 83%
    16:00 +5°C° 0 mm 3 mps 761 mmHg 86%
    17:00 +4°C° 0 mm 3 mps 762 mmHg 89%
    18:00 +3°C° 0 mm 3 mps 762 mmHg 93%
    19:00 +3°C° 0 mm 3 mps 763 mmHg 91%
    20:00 +4°C° 0 mm 4 mps 764 mmHg 90%
    21:00 +3°C° 0 mm 5 mps 764 mmHg 89%
    22:00 +2°C° 0 mm 5 mps 765 mmHg 87%
    23:00 +1°C° 0 mm 4 mps 765 mmHg 84%

    21 January, Monday

    Time Temperature Precipitation Wind Pressure Humidity
    00:00 +1°C° 0 mm 4 mps 765 mmHg 82%
    01:00 0°C° 0 mm 4 mps 765 mmHg 82%
    02:00 -1°C° 0 mm 4 mps 766 mmHg 82%
    03:00 -1°C° 0 mm 3 mps 766 mmHg 82%
    04:00 -1°C° 0 mm 3 mps 766 mmHg 83%
    05:00 -1°C° 0 mm 3 mps 766 mmHg 83%
    06:00 -2°C° 0 mm 3 mps 766 mmHg 84%
    07:00 -1°C° 0 mm 2 mps 766 mmHg 82%
    08:00 -1°C° 0 mm 2 mps 766 mmHg 80%
    09:00 -1°C° 0 mm 2 mps 766 mmHg 79%
    10:00 +1°C° 0 mm 2 mps 766 mmHg 73%
    11:00 +3°C° 0 mm 2 mps 766 mmHg 67%
    12:00 +4°C° 0 mm 2 mps 765 mmHg 61%
    13:00 +4°C° 0 mm 2 mps 764 mmHg 62%
    14:00 +4°C° 0 mm 2 mps 763 mmHg 64%
    15:00 +4°C° 0 mm 2 mps 763 mmHg 65%
    16:00 +3°C° 0 mm 2 mps 762 mmHg 70%
    17:00 +1°C° 0 mm 3 mps 761 mmHg 76%
    18:00 0°C° 0 mm 3 mps 760 mmHg 81%
    19:00 0°C° 0.1 mm 4 mps 759 mmHg 80%
    20:00 0°C° 0.1 mm 4 mps 758 mmHg 80%
    21:00 +1°C° 0.1 mm 5 mps 757 mmHg 79%
    22:00 +2°C° 0.7 mm 5 mps 755 mmHg 82%
    23:00 +2°C° 0.7 mm 6 mps 753 mmHg 85%

    22 January, Tuesday

    Time Temperature Precipitation Wind Pressure Humidity
    00:00 +2°C° 0.7 mm 6 mps 751 mmHg 88%
    01:00 +3°C° 1.2 mm 7 mps 750 mmHg 88%
    02:00 +3°C° 1.2 mm 7 mps 748 mmHg 89%
    03:00 +2°C° 1.2 mm 8 mps 747 mmHg 89%
    04:00 +1°C° 1.4 mm 8 mps 746 mmHg 89%
    05:00 +2°C° 1.4 mm 7 mps 745 mmHg 89%
    06:00 0°C° 1.4 mm 7 mps 745 mmHg 88%
    07:00 0°C° 0.6 mm 7 mps 744 mmHg 89%
    08:00 -1°C° 0.6 mm 6 mps 744 mmHg 89%
    09:00 -1°C° 0.6 mm 6 mps 744 mmHg 90%
    10:00 -1°C° 0.5 mm 6 mps 744 mmHg 90%
    11:00 -1°C° 0.5 mm 6 mps 744 mmHg 91%
    12:00 +1°C° 0.5 mm 6 mps 744 mmHg 91%
    13:00 -1°C° 0.6 mm 7 mps 744 mmHg 91%
    14:00 -1°C° 0.6 mm 7 mps 743 mmHg 91%
    15:00 -1°C° 0.6 mm 7 mps 743 mmHg 91%
    16:00 -1°C° 0.7 mm 7 mps 743 mmHg 91%
    17:00 -1°C° 0.7 mm 7 mps 744 mmHg 92%
    18:00 -1°C° 0.7 mm 7 mps 744 mmHg 92%
    19:00 -1°C° 0.2 mm 7 mps 744 mmHg 93%
    20:00 -1°C° 0.2 mm 6 mps 744 mmHg 95%
    21:00 0°C° 0.2 mm 5 mps 745 mmHg 97%
    22:00 0°C° 0 mm 5 mps 745 mmHg 97%
    23:00 0°C° 0 mm 4 mps 746 mmHg 97%
    Show more